Вернуться в каталог

CZ-6A DEB

АктивенPO
NORAD 55534·DEBRIS·🇨🇳 China

Запущен Nov 11, 2022 с Taiyuan Satellite Launch Center

Loading…

Ближайшие Пролёты (ближайшие 24 часа)

TLE

СвежийSource: Space-Track

Эпоха: Sep 13, 2026, 19:14 UTC

1 55534U 22151YG  26256.80173957  .00041558  00000-0  28126-2 0  9998
2 55534  98.6415 352.2805 0034219 299.7515  60.0306 15.05895798199370

Отслеживайте CZ-6A DEB в реальном времени с AllMySat

Download on the App Store